FW9424 Weather Reports


time (UTC)temp
C
wind
direction
speed
KPH
gust
KPH
rain 1hr
cm
rain 24hr
cm
rain mn
cm
humidity
%
barometer
mb
20260507165518 21 0.0 0.0 0.00 0.00 0.00 57 1017.7
20260507164518 22 171 0.0 1.6 0.00 0.00 0.00 48 1017.6
20260507163517 22 14 1.6 4.8 0.00 0.00 0.00 48 1017.6
20260507162519 22 341 4.8 9.7 0.00 0.00 0.00 50 1017.8
20260507161517 23 300 3.2 8.0 0.00 0.00 0.00 48 1017.7
20260507160517 25 354 0.0 4.8 0.00 0.00 0.00 47 1017.6
20260507155518 24 229 1.6 3.2 0.00 0.00 0.00 49 1017.6
20260507154518 23 264 1.6 4.8 0.00 0.00 0.00 49 1017.6
20260507153518 23 317 1.6 4.8 0.00 0.00 0.00 49 1017.5
20260507152538 23 224 0.0 3.2 0.00 0.00 0.00 57 1017.5
20260507151519 22 272 1.6 6.4 0.00 0.00 0.00 53 1017.4
20260507150517 22 291 3.2 6.4 0.00 0.00 0.00 54 1017.5
20260507145517 22 292 3.2 8.0 0.00 0.00 0.00 55 1017.6
20260507144517 22 300 3.2 6.4 0.00 0.00 0.00 58 1017.6
20260507143518 21 294 3.2 11.3 0.00 0.00 0.00 59 1017.7
20260507142538 21 277 8.0 16.1 0.00 0.00 0.00 62 1017.8
20260507141518 21 270 8.0 16.1 0.00 0.00 0.00 61 1017.7
20260507140518 21 268 8.0 14.5 0.00 0.00 0.00 62 1017.6
20260507135538 21 289 8.0 16.1 0.00 0.00 0.00 66 1017.7
20260507134518 21 285 9.7 16.1 0.00 0.00 0.00 65 1017.8
20260507133518 22 286 8.0 14.5 0.00 0.00 0.00 56 1017.7
20260507132518 22 286 4.8 12.9 0.00 0.00 0.00 54 1017.8
20260507131518 22 307 4.8 9.7 0.00 0.00 0.00 56 1017.9
20260507130518 22 288 6.4 14.5 0.00 0.00 0.00 52 1017.8
20260507125518 22 265 8.0 12.9 0.00 0.00 0.00 54 1017.9
20260507124519 22 320 4.8 9.7 0.00 0.00 0.00 56 1017.9
20260507123518 22 299 6.4 11.3 0.00 0.00 0.00 59 1018.0
20260507122518 23 274 4.8 12.9 0.00 0.00 0.00 59 1017.9
20260507121518 22 261 3.2 8.0 0.00 0.00 0.00 63 1018.0
20260507120518 22 297 6.4 12.9 0.00 0.00 0.00 63 1018.0
20260507115518 22 302 4.8 11.3 0.00 0.00 0.00 64 1018.0
20260507114518 22 289 8.0 16.1 0.00 0.00 0.00 65 1018.1
20260507113518 23 287 8.0 17.7 0.00 0.00 0.00 55 1018.0
20260507112518 24 289 8.0 14.5 0.00 0.00 0.00 49 1017.9
20260507111518 26 208 8.0 17.7 0.00 0.00 0.00 35 1017.9
20260507110518 26 187 6.4 14.5 0.00 0.00 0.00 36 1017.9
20260507105518 26 178 9.7 16.1 0.00 0.00 0.00 35 1018.0
20260507104518 25 168 8.0 19.3 0.00 0.00 0.00 34 1018.0
20260507103538 25 187 4.8 14.5 0.00 0.00 0.00 37 1018.0
20260507102538 25 193 6.4 19.3 0.00 0.00 0.00 39 1018.0
20260507101519 25 194 6.4 14.5 0.00 0.00 0.00 44 1018.1
20260507100518 25 175 8.0 17.7 0.00 0.00 0.00 42 1018.1
20260507095518 24 159 6.4 17.7 0.00 0.00 0.00 41 1018.1
20260507094518 24 157 8.0 17.7 0.00 0.00 0.00 43 1018.1
20260507093518 24 158 8.0 17.7 0.00 0.00 0.00 43 1018.1
20260507092518 23 172 8.0 17.7 0.00 0.00 0.00 43 1018.1
20260507091519 24 184 8.0 16.1 0.00 0.00 0.00 44 1018.3
20260507090518 23 153 4.8 12.9 0.00 0.00 0.00 45 1018.3
20260507085518 23 150 3.2 11.3 0.00 0.00 0.00 44 1018.3
20260507084518 23 155 3.2 12.9 0.00 0.00 0.00 43 1018.3
20260507083539 23 136 6.4 14.5 0.00 0.00 0.00 44 1018.4
20260507082518 23 159 4.8 16.1 0.00 0.00 0.00 45 1018.4
20260507081518 22 163 6.4 14.5 0.00 0.00 0.00 45 1018.5
20260507080518 22 149 6.4 16.1 0.00 0.00 0.00 46 1018.4
20260507075518 22 145 6.4 16.1 0.00 0.00 0.00 48 1018.3
20260507074518 22 134 4.8 14.5 0.00 0.00 0.00 49 1018.4
20260507073538 22 152 6.4 14.5 0.00 0.00 0.00 48 1018.3
20260507072518 22 132 6.4 16.1 0.00 0.00 0.00 48 1018.4
20260507071538 22 131 4.8 12.9 0.00 0.00 0.00 48 1018.4
20260507070519 22 121 3.2 14.5 0.00 0.00 0.00 50 1018.3
20260507065538 21 104 6.4 19.3 0.00 0.00 0.00 51 1018.3
20260507064518 21 102 8.0 17.7 0.00 0.00 0.00 54 1018.3
20260507063518 21 108 4.8 11.3 0.00 0.00 0.00 57 1018.4
20260507062518 21 108 6.4 12.9 0.00 0.00 0.00 59 1018.3
20260507061540 21 125 4.8 11.3 0.00 0.00 0.00 58 1018.5
20260507060518 21 138 3.2 11.3 0.00 0.00 0.00 59 1018.4
20260507055519 20 104 1.6 14.5 0.00 0.00 0.00 61 1018.3
20260507054518 20 79 3.2 14.5 0.00 0.00 0.00 61 1018.3
20260507053518 20 98 3.2 11.3 0.00 0.00 0.00 61 1018.3
20260507052538 19 68 3.2 11.3 0.00 0.00 0.00 63 1018.3
20260507051518 19 100 4.8 17.7 0.00 0.00 0.00 62 1018.2
20260507050518 19 85 1.6 11.3 0.00 0.00 0.00 63 1018.0
20260507045518 18 81 1.6 9.7 0.00 0.00 0.00 65 1018.2
20260507044519 18 73 0.0 8.0 0.00 0.00 0.00 66 1018.0
20260507043518 17 44 1.6 8.0 0.00 0.00 0.00 67 1017.8
20260507042518 16 76 0.0 6.4 0.00 0.00 0.00 68 1017.6
20260507041540 16 50 3.2 8.0 0.00 0.00 0.00 66 1017.6
20260507040518 16 100 1.6 9.7 0.00 0.00 0.00 65 1017.3
20260507035518 16 80 0.0 4.8 0.00 0.00 0.00 65 1017.1
20260507034539 16 70 0.0 8.0 0.00 0.00 0.00 66 1017.1
20260507033558 15 100 1.6 6.4 0.00 0.00 0.00 67 1016.9
20260507032519 15 73 1.6 6.4 0.00 0.00 0.00 68 1016.8
20260507031518 15 85 1.6 6.4 0.00 0.00 0.00 69 1016.8
20260507030518 16 106 1.6 8.0 0.00 0.00 0.00 67 1016.6
20260507025518 16 104 4.8 12.9 0.00 0.00 0.00 67 1016.3
20260507024538 16 106 4.8 11.3 0.00 0.00 0.00 66 1016.2
20260507023518 15 128 0.0 1.6 0.00 0.00 0.00 66 1016.4
20260507022518 15 0.0 1.6 0.00 0.00 0.00 64 1016.6
20260507021518 15 28 0.0 3.2 0.00 0.00 0.00 64 1016.6
20260507020539 15 76 1.6 6.4 0.00 0.00 0.00 63 1016.5
20260507015538 15 0.0 3.2 0.00 0.00 0.00 64 1016.5
20260507014538 15 21 0.0 3.2 0.00 0.00 0.00 63 1016.5
20260507013517 15 37 0.0 1.6 0.00 0.00 0.00 65 1016.6
20260507012518 15 15 0.0 3.2 0.00 0.00 0.00 64 1016.5
20260507011518 15 19 1.6 4.8 0.00 0.00 0.00 64 1016.5
20260507010518 15 26 1.6 4.8 0.00 0.00 0.00 64 1016.4
20260507005539 15 0.0 0.0 0.00 0.00 0.00 67 1016.4
20260507004538 15 20 0.0 1.6 0.00 0.00 0.00 67 1016.3
20260507003518 15 0.0 1.6 0.00 0.00 0.00 67 1016.3
20260507002518 15 0.0 0.0 0.00 0.00 0.00 67 1016.2
20260507001519 14 0.0 0.0 0.00 0.00 0.00 72 1016.2
20260507000518 14 0.0 0.0 0.00 0.00 0.00 68 1016.3
20260506235519 15 0.0 0.0 0.00 0.00 0.00 69 1016.5
20260506234518 15 0.0 0.0 0.00 0.00 0.00 68 1016.5
20260506233519 15 0.0 0.0 0.00 0.00 0.00 72 1016.6
20260506232518 15 19 0.0 1.6 0.00 0.00 0.00 73 1016.6
20260506231519 15 0.0 0.0 0.00 0.00 0.00 75 1016.7
20260506230518 15 0.0 1.6 0.00 0.00 0.00 75 1016.7
20260506225519 15 0.0 0.0 0.00 0.00 0.00 76 1016.7
20260506224538 15 0.0 0.0 0.00 0.00 0.00 77 1016.7
20260506223538 15 0.0 0.0 0.00 0.00 0.00 77 1016.8
20260506222518 15 0.0 0.0 0.00 0.00 0.00 77 1016.8
20260506221519 15 0.0 0.0 0.00 0.00 0.00 78 1016.8
20260506220519 15 22 0.0 3.2 0.00 0.00 0.00 77 1016.9
20260506215518 15 0.0 0.0 0.00 0.00 0.00 77 1016.9
20260506214519 15 13 0.0 3.2 0.00 0.00 0.00 76 1016.8
20260506213518 15 0.0 0.0 0.00 0.00 0.00 75 1016.8
20260506212518 15 0.0 1.6 0.00 0.00 0.00 73 1016.8
20260506211518 15 339 1.6 3.2 0.00 0.00 0.00 72 1016.8
20260506210558 15 0.0 0.0 0.00 0.00 0.00 72 1016.8
20260506205518 15 0.0 0.0 0.00 0.00 0.00 72 1016.8
20260506204540 15 0.0 0.0 0.00 0.00 0.00 71 1016.8
20260506203600 15 0.0 0.0 0.00 0.00 0.00 71 1016.7
20260506202519 15 0.0 0.0 0.00 0.00 0.00 72 1016.7
20260506201518 15 0.0 1.6 0.00 0.00 0.00 71 1016.8
20260506200520 15 71 0.0 3.2 0.00 0.00 0.00 72 1016.8
20260506195518 16 336 1.6 4.8 0.00 0.00 0.00 70 1016.7
20260506194538 16 0.0 0.0 0.00 0.00 0.00 70 1016.6
20260506193516 16 0.0 0.0 0.00 0.00 0.00 69 1016.5
20260506192516 17 0.0 0.0 0.00 0.00 0.00 68 1016.4
20260506191516 16 64 0.0 4.8 0.00 0.00 0.00 68 1016.3
20260506190516 16 83 0.0 1.6 0.00 0.00 0.00 68 1016.2
20260506185537 17 15 0.0 1.6 0.00 0.00 0.00 66 1016.1
20260506184516 17 245 0.0 4.8 0.00 0.00 0.00 66 1016.0
20260506183516 17 318 3.2 6.4 0.00 0.00 0.00 62 1015.9
20260506182516 17 20 1.6 4.8 0.00 0.00 0.00 60 1015.7
20260506181516 18 294 3.2 6.4 0.00 0.00 0.00 60 1015.5
20260506180516 18 311 0.0 4.8 0.00 0.00 0.00 52 1015.4
20260506175516 18 0.0 0.0 0.00 0.00 0.00 51 1015.3
20260506174556 18 0.0 0.0 0.00 0.00 0.00 55 1015.3
20260506173517 18 0.0 0.0 0.00 0.00 0.00 56 1015.3
20260506172516 18 109 0.0 1.6 0.00 0.00 0.00 56 1015.2
20260506171557 19 47 0.0 1.6 0.00 0.00 0.00 53 1015.1
20260506170516 20 85 0.0 1.6 0.00 0.00 0.00 52 1015.1